EN

Hourly Weather Namutoni Gate

Today, 27 January, Wednesday

Time Temperature Precipitation Wind Pressure Humidity
00:00 +22°C° 0.3 mm 4 mps 666 mmHg 78%
01:00 +22°C° 0.3 mm 4 mps 666 mmHg 81%
02:00 +22°C° 0.2 mm 4 mps 665 mmHg 80%
03:00 +22°C° 0.2 mm 4 mps 665 mmHg 80%
04:00 +22°C° 0.2 mm 4 mps 665 mmHg 80%
05:00 +22°C° 0 mm 4 mps 665 mmHg 79%
06:00 +22°C° 0 mm 3 mps 665 mmHg 79%
07:00 +22°C° 0 mm 3 mps 666 mmHg 78%
08:00 +22°C° 0.1 mm 3 mps 666 mmHg 76%
09:00 +23°C° 0.1 mm 4 mps 666 mmHg 74%
10:00 +25°C° 0.1 mm 4 mps 667 mmHg 72%
11:00 +26°C° 0.5 mm 4 mps 667 mmHg 66%
12:00 +28°C° 0.5 mm 4 mps 666 mmHg 60%
13:00 +29°C° 0.5 mm 5 mps 666 mmHg 55%
14:00 +29°C° 0.2 mm 5 mps 666 mmHg 54%
15:00 +29°C° 0.2 mm 5 mps 665 mmHg 54%
16:00 +30°C° 0.2 mm 5 mps 665 mmHg 54%
17:00 +28°C° 0.3 mm 4 mps 665 mmHg 59%
18:00 +26°C° 0.3 mm 4 mps 665 mmHg 65%
19:00 +24°C° 0.3 mm 3 mps 664 mmHg 71%
20:00 +22°C° 3.4 mm 4 mps 665 mmHg 78%
21:00 +22°C° 3.4 mm 5 mps 665 mmHg 84%
22:00 +21°C° 3.4 mm 6 mps 665 mmHg 91%
23:00 +21°C° 1.2 mm 5 mps 665 mmHg 90%

Tomorrow, 28 January, Thursday

Time Temperature Precipitation Wind Pressure Humidity
00:00 +21°C° 1.2 mm 4 mps 665 mmHg 89%
01:00 +21°C° 1.2 mm 2 mps 665 mmHg 88%
02:00 +21°C° 0 mm 3 mps 665 mmHg 87%
03:00 +21°C° 0 mm 3 mps 664 mmHg 87%
04:00 +21°C° 0 mm 3 mps 664 mmHg 87%
05:00 +21°C° 0 mm 3 mps 665 mmHg 86%
06:00 +21°C° 0 mm 3 mps 665 mmHg 85%
07:00 +22°C° 0 mm 3 mps 666 mmHg 84%
08:00 +24°C° 0 mm 3 mps 666 mmHg 73%
09:00 +26°C° 0 mm 3 mps 666 mmHg 63%
10:00 +28°C° 0 mm 2 mps 667 mmHg 52%
11:00 +29°C° 0 mm 2 mps 667 mmHg 49%
12:00 +31°C° 0 mm 1 mps 666 mmHg 46%
13:00 +30°C° 0 mm 0 mps 666 mmHg 43%
14:00 +30°C° 0.8 mm 2 mps 665 mmHg 51%
15:00 +29°C° 0.8 mm 3 mps 664 mmHg 58%
16:00 +27°C° 0.8 mm 4 mps 663 mmHg 65%
17:00 +26°C° 2.5 mm 3 mps 664 mmHg 69%
18:00 +24°C° 2.5 mm 3 mps 664 mmHg 72%
19:00 +23°C° 2.5 mm 2 mps 664 mmHg 75%
20:00 +23°C° 0 mm 2 mps 664 mmHg 74%
21:00 +24°C° 0 mm 2 mps 665 mmHg 73%
22:00 +24°C° 0 mm 2 mps 665 mmHg 73%
23:00 +24°C° 0 mm 2 mps 665 mmHg 73%

Day after tomorrow, 29 January, Friday

Time Temperature Precipitation Wind Pressure Humidity
00:00 +23°C° 0 mm 2 mps 665 mmHg 74%
01:00 +22°C° 0 mm 3 mps 665 mmHg 75%
02:00 +21°C° 0 mm 2 mps 665 mmHg 76%
03:00 +21°C° 0 mm 2 mps 665 mmHg 77%
04:00 +21°C° 0 mm 2 mps 665 mmHg 78%
05:00 +21°C° 0 mm 2 mps 665 mmHg 78%
06:00 +21°C° 0 mm 2 mps 666 mmHg 78%
07:00 +23°C° 0 mm 2 mps 666 mmHg 78%
08:00 +22°C° 0 mm 3 mps 666 mmHg 75%
09:00 +24°C° 0 mm 3 mps 666 mmHg 71%
10:00 +25°C° 0 mm 3 mps 666 mmHg 68%
11:00 +26°C° 0 mm 3 mps 666 mmHg 64%
12:00 +26°C° 0 mm 3 mps 666 mmHg 61%
13:00 +26°C° 0 mm 3 mps 665 mmHg 58%
14:00 +27°C° 0 mm 3 mps 665 mmHg 57%
15:00 +27°C° 0 mm 3 mps 665 mmHg 56%
16:00 +28°C° 0 mm 3 mps 664 mmHg 54%
17:00 +26°C° 0.4 mm 3 mps 664 mmHg 60%
18:00 +25°C° 0.4 mm 3 mps 664 mmHg 65%
19:00 +24°C° 0.4 mm 3 mps 664 mmHg 71%
20:00 +22°C° 2.1 mm 4 mps 664 mmHg 77%
21:00 +21°C° 2.1 mm 5 mps 665 mmHg 83%
22:00 +20°C° 2.1 mm 7 mps 666 mmHg 89%
23:00 +21°C° 0.1 mm 6 mps 665 mmHg 87%

30 January, Saturday

Time Temperature Precipitation Wind Pressure Humidity
00:00 +21°C° 0.1 mm 6 mps 665 mmHg 86%
01:00 +21°C° 0.1 mm 5 mps 665 mmHg 85%
02:00 +21°C° 0.2 mm 5 mps 665 mmHg 85%
03:00 +21°C° 0.2 mm 4 mps 665 mmHg 85%
04:00 +21°C° 0.2 mm 4 mps 664 mmHg 85%
05:00 +21°C° 0.2 mm 4 mps 664 mmHg 84%
06:00 +20°C° 0.2 mm 4 mps 665 mmHg 82%
07:00 +20°C° 0.2 mm 4 mps 665 mmHg 81%
08:00 +22°C° 0 mm 4 mps 665 mmHg 74%
09:00 +25°C° 0 mm 4 mps 666 mmHg 67%
10:00 +27°C° 0 mm 3 mps 666 mmHg 60%
11:00 +28°C° 0.5 mm 3 mps 666 mmHg 59%
12:00 +29°C° 0.5 mm 3 mps 666 mmHg 57%
13:00 +30°C° 0.5 mm 3 mps 666 mmHg 55%
14:00 +29°C° 2.2 mm 3 mps 665 mmHg 61%
15:00 +28°C° 2.2 mm 4 mps 664 mmHg 66%
16:00 +27°C° 2.2 mm 5 mps 663 mmHg 72%
17:00 +26°C° 1.3 mm 4 mps 663 mmHg 76%
18:00 +25°C° 1.3 mm 4 mps 663 mmHg 81%
19:00 +24°C° 1.3 mm 3 mps 663 mmHg 85%
20:00 +22°C° 0.6 mm 4 mps 663 mmHg 85%
21:00 +22°C° 0.6 mm 4 mps 664 mmHg 85%
22:00 +21°C° 0.6 mm 5 mps 664 mmHg 85%
23:00 +21°C° 0.3 mm 4 mps 664 mmHg 85%

31 January, Sunday

Time Temperature Precipitation Wind Pressure Humidity
00:00 +21°C° 0.3 mm 3 mps 664 mmHg 86%
01:00 +21°C° 0.3 mm 3 mps 664 mmHg 87%
02:00 +21°C° 0.2 mm 3 mps 663 mmHg 87%
03:00 +21°C° 0.2 mm 3 mps 663 mmHg 87%
04:00 +21°C° 0.2 mm 3 mps 663 mmHg 86%
05:00 +23°C° 0 mm 2 mps 663 mmHg 85%
06:00 +23°C° 0 mm 2 mps 664 mmHg 83%
07:00 +23°C° 0 mm 2 mps 664 mmHg 81%
08:00 +25°C° 0.2 mm 2 mps 665 mmHg 74%
09:00 +26°C° 0.2 mm 2 mps 665 mmHg 68%
10:00 +28°C° 0.2 mm 2 mps 665 mmHg 61%
11:00 +29°C° 0.4 mm 2 mps 665 mmHg 58%
12:00 +30°C° 0.4 mm 2 mps 665 mmHg 55%
13:00 +31°C° 0.4 mm 2 mps 664 mmHg 51%
14:00 +31°C° 0.4 mm 2 mps 664 mmHg 53%
15:00 +30°C° 0.4 mm 2 mps 663 mmHg 55%
16:00 +30°C° 0.4 mm 2 mps 663 mmHg 57%
17:00 +29°C° 0.4 mm 2 mps 663 mmHg 63%
18:00 +28°C° 0.4 mm 2 mps 663 mmHg 68%
19:00 +26°C° 0.4 mm 2 mps 663 mmHg 74%
20:00 +25°C° 0.9 mm 3 mps 663 mmHg 76%
21:00 +23°C° 0.9 mm 5 mps 664 mmHg 78%
22:00 +22°C° 0.9 mm 7 mps 664 mmHg 80%
23:00 +22°C° 0.4 mm 6 mps 664 mmHg 81%

1 February, Monday

Time Temperature Precipitation Wind Pressure Humidity
00:00 +21°C° 0.4 mm 4 mps 664 mmHg 82%
01:00 +21°C° 0.4 mm 3 mps 664 mmHg 83%
02:00 +21°C° 0.1 mm 3 mps 663 mmHg 83%
03:00 +21°C° 0.1 mm 2 mps 663 mmHg 83%
04:00 +21°C° 0.1 mm 2 mps 663 mmHg 83%
05:00 +23°C° 0 mm 2 mps 664 mmHg 83%
06:00 +23°C° 0 mm 2 mps 664 mmHg 83%
07:00 +23°C° 0 mm 2 mps 665 mmHg 82%
08:00 +25°C° 0 mm 2 mps 665 mmHg 75%
09:00 +26°C° 0 mm 2 mps 666 mmHg 68%
10:00 +27°C° 0 mm 2 mps 666 mmHg 61%
11:00 +28°C° 0.1 mm 2 mps 666 mmHg 59%
12:00 +29°C° 0.1 mm 3 mps 666 mmHg 57%
13:00 +29°C° 0.1 mm 3 mps 665 mmHg 55%
14:00 +29°C° 0.1 mm 3 mps 665 mmHg 55%
15:00 +30°C° 0.1 mm 3 mps 665 mmHg 54%
16:00 +30°C° 0.1 mm 4 mps 665 mmHg 53%
17:00 +28°C° 0 mm 3 mps 665 mmHg 59%
18:00 +27°C° 0 mm 2 mps 665 mmHg 64%
19:00 +26°C° 0 mm 2 mps 665 mmHg 69%
20:00 +25°C° 0.5 mm 2 mps 665 mmHg 74%
21:00 +24°C° 0.5 mm 2 mps 666 mmHg 79%
22:00 +23°C° 0.5 mm 2 mps 666 mmHg 83%
23:00 +23°C° 0.7 mm 2 mps 666 mmHg 85%
Show more

We Need Your Consent

Meteoprog and our Service Providers may store and access personal data such as cookies, device identifiers or other similar technologies on your device and process such data to personalise content and ads, as well as provide social media features and to analyse the traffic.

  • Store and/or access information on your device

    Cookies, device identifiers or other information can be stored or accessed on your device for the purposes indicated above.

  • Personalised ads and content, ad and content measurement, audience insights, and products development

    Ads and content can be personalised based on a profile. More data can be added to better personalise ads and content. Ad and content performance can be measured. Insights about the audience who saw the ads and content can be derived. Such data can be used to develop or improve user’s experience, systems and software.

By clicking ‘I Agree’ you will allow the use of indicated cookies, device identifiers, web beacons or other similar technologies. Your settings can be changed in the browser on your device.

For certain purposes, legitimate interests may be relied on, rather than consent. You can read more about this in our Privacy and Cookie Policy.